Location: Bottenau
(48.5138°N, 8.0462°E)
Time: 10:18:07
(UTC+00:00)

Meteor 1-14 Rocket - Pass Details

Date: 18 April 2021
Orbit: 834 x 918 km, 81.3° (Epoch: 05 May)

Event Time Altitude Azimuth Distance (km) Brightness Sun altitude
Rises 23:13:25 0° 348° (NNW) 3,568 8.6 -30.2°
Reaches altitude 10° 23:15:54 10° 350° (N) 2,624 7.7 -30.3°
Enters shadow 23:21:33 77° 21° (NNE) 945 4.4 -30.3°
